Wind_Speed
21 22 22 22 22 22 22 20 20 19 18 17 16 16 16 15 16 16 16 16 17 17 17 18 18 17 18 19 19 19 18 17 17 18 19 20 21 22 21 20 20 21
21 22 22 22 22 21 21 20 20 19 18 17 16 16 16 15 16 16 16 17 17 17 17 18 18 17 18 19 18 19 19 19 19 19 20 21 21 22 22 21 21 22
21 22 22 23 22 21 20 20 19 19 18 18 17 17 16 15 16 16 16 17 17 16 17 18 18 17 17 18 18 20 20 20 19 19 20 21 21 21 21 22 22 23
21 23 23 23 21 20 20 20 19 19 19 19 18 18 16 16 16 16 16 16 16 15 15 16 17 17 17 18 19 20 20 20 19 19 20 21 21 21 22 22 23 24
23 24 23 22 21 21 20 20 20 20 20 19 19 18 17 16 16 16 16 16 16 15 14 15 17 17 17 18 19 20 20 19 19 19 20 21 21 21 22 23 24 25
24 24 23 22 21 21 20 20 21 20 20 20 19 18 17 17 17 16 16 15 15 15 15 16 17 18 18 18 19 20 20 20 20 19 20 20 21 21 22 23 25 26
24 24 23 22 21 21 21 21 21 21 21 20 19 19 18 18 18 17 16 15 15 16 16 17 18 18 18 19 19 20 20 20 20 19 19 20 20 21 22 23 25 26
24 24 23 22 21 21 21 22 22 22 22 21 20 20 19 19 18 17 16 15 15 16 17 18 19 19 19 19 19 19 20 20 20 20 19 19 20 21 22 24 25 26
25 24 23 22 21 22 22 22 22 23 22 21 21 21 20 20 18 17 16 15 15 16 18 19 20 20 20 19 19 19 19 20 20 20 19 19 20 21 22 24 25 27
25 24 24 22 22 22 22 23 23 23 22 21 21 22 21 20 18 17 17 16 16 17 18 19 20 19 19 18 18 19 19 19 19 19 19 19 20 21 22 24 26 27
25 25 24 23 23 22 23 23 23 23 22 22 22 22 21 20 19 18 18 17 17 17 19 19 19 18 18 17 18 18 19 19 19 19 19 19 20 21 23 25 27 28
25 25 25 24 23 23 23 24 24 23 22 22 22 23 21 20 20 20 19 18 17 18 19 19 19 18 17 17 18 18 19 20 20 20 20 21 21 23 25 26 28 29
25 26 26 25 24 24 24 24 23 23 22 22 23 23 22 21 21 20 20 18 18 18 18 18 18 18 17 17 18 19 20 21 21 22 22 22 24 25 26 28 29 30
26 27 26 25 25 24 25 24 23 22 22 23 24 24 23 22 21 21 20 19 19 19 18 18 18 18 18 18 19 20 21 22 23 23 24 24 25 27 28 29 30 31
27 27 26 25 25 25 25 24 23 22 22 23 24 24 23 22 21 21 21 20 19 19 18 18 18 18 19 19 20 21 22 23 24 24 25 26 27 28 29 30 31 32
27 27 26 26 26 26 25 24 23 21 22 23 24 24 23 22 22 22 22 21 20 19 18 19 19 19 20 20 21 22 23 23 24 25 26 27 28 29 30 30 31 32
28 27 27 27 27 27 26 24 22 21 22 24 24 24 23 23 23 23 22 21 20 20 20 20 20 20 20 21 22 23 23 25 26 26 27 28 28 29 30 31 32 33
28 27 27 27 27 27 26 24 22 22 23 24 24 24 24 23 23 23 22 21 21 21 21 22 22 22 22 23 23 24 25 26 27 27 27 28 29 29 30 31 32 33
29 28 28 28 28 28 26 23 22 23 24 24 24 24 24 23 23 23 22 22 22 22 23 23 24 24 25 25 25 25 27 27 28 28 28 29 30 31 31 32 33 34
30 29 29 29 30 29 26 24 23 24 24 25 25 24 24 23 23 23 22 22 23 23 24 25 26 27 27 27 27 28 29 29 29 29 30 31 32 32 32 33 33 34
30 30 30 31 30 28 25 24 24 25 25 25 25 25 24 23 23 23 23 23 24 24 25 26 28 29 29 30 30 30 30 30 30 31 31 32 33 33 33 32 33 34
31 31 31 32 31 28 26 25 25 25 25 26 26 25 24 23 23 23 23 24 24 25 27 28 30 30 31 32 33 32 32 32 32 32 32 32 33 33 32 32 34 36
32 32 32 32 31 28 26 25 25 24 25 25 25 24 23 22 22 22 23 24 26 27 29 30 32 32 33 34 35 34 34 34 34 33 33 33 32 32 32 33 36 39
33 33 33 33 31 28 26 25 25 24 24 24 23 23 22 22 21 22 23 25 27 29 31 32 33 34 35 36 36 36 35 35 35 33 32 32 32 32 33 36 39 42
34 34 34 33 30 28 27 25 24 23 23 24 24 23 23 23 23 23 24 26 28 30 32 33 34 35 36 37 37 36 36 35 34 33 32 32 32 34 36 39 41 44
35 36 35 33 31 29 28 26 25 25 24 25 25 26 27 26 24 23 24 26 29 30 32 33 34 35 36 37 37 37 36 35 34 32 32 33 34 36 39 41 43 45
Wind_Direction
254 253 251 249 249 253 259 265 269 271 269 266 263 263 264 266 268 270 272 274 276 277 276 273 272 271 266 260 256 263 270 264 258 260 258 254 253 253 253 255 260 265
250 249 246 246 248 253 260 265 268 270 266 263 262 261 262 265 268 271 274 275 276 276 273 271 271 269 266 263 262 269 274 269 262 261 261 258 256 255 256 258 261 266
248 245 243 244 248 254 260 264 267 266 262 263 263 261 263 266 268 272 274 275 275 274 270 270 270 267 265 266 268 272 274 270 264 262 263 262 259 258 259 261 264 268
244 241 241 244 248 255 259 262 264 263 261 262 262 261 264 266 269 272 273 274 274 271 268 268 268 266 267 270 272 273 270 266 263 263 265 263 260 260 261 263 267 270
241 239 241 244 248 253 257 259 261 260 261 261 260 261 263 265 268 271 272 272 272 270 265 262 263 265 266 268 270 270 269 267 264 265 266 263 260 260 262 266 270 273
239 239 240 243 248 252 255 257 258 257 258 259 259 260 262 265 267 269 271 272 271 269 264 258 259 263 265 267 268 267 267 268 267 266 264 261 260 261 264 268 273 276
237 237 238 242 247 250 253 255 255 255 256 257 258 259 261 264 266 269 271 272 271 268 264 259 258 261 264 266 266 265 265 267 267 264 261 260 261 263 266 271 276 280
235 235 238 241 245 249 252 253 253 254 255 256 256 257 260 262 266 270 272 273 272 271 267 263 261 262 263 265 265 265 264 264 264 262 259 259 261 265 270 275 279 282
234 235 237 240 244 248 250 252 253 254 255 255 255 256 259 262 267 271 273 274 275 275 273 269 266 264 264 264 264 263 262 262 261 259 256 258 262 268 274 278 281 283
234 235 236 239 243 246 249 251 252 254 255 255 255 256 258 263 268 272 274 276 278 279 278 274 270 267 264 262 261 260 260 259 257 255 256 259 265 271 276 279 281 282
233 234 235 239 242 246 248 250 252 254 255 255 255 256 258 263 268 271 274 277 281 282 279 275 269 263 260 258 258 259 258 256 255 255 258 262 268 273 276 278 280 283
231 232 234 238 241 245 248 250 253 255 256 255 255 256 257 262 266 270 275 279 282 282 279 272 265 259 256 256 258 259 258 257 256 257 261 266 270 273 276 279 281 284
228 230 233 237 241 245 247 250 253 255 256 255 255 255 256 260 264 270 275 279 280 280 276 269 261 256 255 255 257 258 258 258 258 260 263 267 270 274 277 280 282 285
226 229 232 236 241 244 248 251 253 255 255 254 254 254 255 259 263 269 274 276 277 276 273 266 259 255 254 255 256 256 257 258 259 261 264 267 271 274 277 281 285 288
225 228 231 236 240 244 247 250 252 253 254 254 253 253 255 258 263 269 272 273 273 273 270 264 259 256 255 254 255 255 257 259 261 265 268 270 273 277 280 285 289 292
226 228 231 235 239 243 246 248 251 253 253 252 252 253 256 259 263 267 270 271 270 269 268 265 261 259 258 258 259 261 263 265 269 272 274 277 280 283 287 291 293 295
226 228 231 235 239 242 245 247 249 251 251 251 252 253 255 258 262 266 268 268 267 267 267 266 264 264 265 267 269 271 273 275 277 279 281 284 287 288 290 293 294 295
226 228 231 235 239 242 243 245 247 249 250 250 251 252 254 257 261 265 268 267 265 266 267 268 270 272 273 276 278 280 281 282 284 286 287 289 289 290 292 293 294 295
226 228 231 235 238 240 241 244 246 248 248 249 250 252 253 256 260 263 266 265 264 266 268 271 274 276 278 281 283 284 283 284 286 288 288 289 290 292 293 293 293 295
225 227 231 234 237 239 241 244 246 247 248 249 250 251 252 255 257 261 264 266 266 267 270 273 275 277 281 283 283 284 284 285 285 286 287 289 291 293 293 294 295 296
224 226 230 234 238 240 242 245 247 248 249 250 250 251 252 254 256 259 263 266 269 270 272 274 276 279 281 282 283 284 285 285 285 286 289 290 291 292 293 294 295 296
224 227 231 235 238 241 243 246 248 249 249 250 251 251 252 253 255 259 263 267 271 274 274 275 277 279 281 282 283 284 284 285 286 288 289 289 290 291 293 294 295 296
224 227 231 235 238 241 244 247 248 248 248 249 250 251 252 252 254 258 263 268 272 273 275 276 278 280 281 282 283 284 285 286 288 289 289 289 289 291 292 294 295 296
225 228 231 234 238 241 244 245 246 246 246 248 249 249 249 250 253 258 263 268 271 273 275 277 279 280 281 282 283 284 286 287 288 289 289 289 289 290 291 293 295 296
225 228 231 234 237 241 242 242 242 241 243 245 247 246 247 248 251 256 262 266 268 271 273 276 278 279 281 282 284 285 285 285 286 287 287 287 288 289 291 293 295 296
224 228 231 233 236 239 239 238 238 240 243 247 249 249 250 251 254 259 264 266 266 268 271 274 277 279 280 281 282 283 283 284 285 285 285 285 287 289 292 294 295 296
Height
5793 5794 5794 5795 5796 5796 5797 5797 5798 5798 5797 5797 5797 5798 5798 5797 5797 5797 5797 5797 5796 5795 5795 5794 5794 5794 5794 5794 5795 5795 5794 5794 5794 5795 5795 5795 5795 5795 5795 5795 5795 5795
5790 5791 5792 5792 5793 5794 5794 5795 5795 5796 5795 5795 5795 5796 5795 5795 5795 5795 5795 5794 5793 5793 5792 5792 5791 5792 5792 5792 5793 5792 5792 5792 5792 5792 5793 5793 5793 5793 5793 5793 5793 5793
5788 5788 5789 5790 5791 5791 5792 5793 5793 5793 5793 5793 5793 5793 5793 5793 5793 5793 5792 5791 5791 5790 5790 5789 5789 5790 5790 5790 5790 5790 5790 5790 5790 5790 5790 5790 5790 5790 5791 5791 5791 5791
5785 5786 5786 5787 5788 5789 5790 5791 5791 5791 5791 5791 5791 5791 5791 5791 5790 5790 5790 5789 5788 5788 5788 5788 5788 5788 5788 5788 5787 5787 5788 5788 5787 5788 5788 5788 5788 5788 5788 5788 5788 5788
5782 5783 5784 5785 5786 5787 5788 5788 5788 5789 5789 5789 5789 5789 5789 5788 5788 5788 5787 5786 5786 5786 5786 5786 5786 5786 5785 5785 5785 5785 5786 5786 5786 5786 5786 5786 5786 5786 5786 5786 5786 5785
5779 5780 5782 5783 5784 5784 5785 5786 5786 5786 5787 5786 5786 5786 5786 5786 5785 5785 5785 5784 5784 5784 5784 5784 5784 5783 5783 5783 5783 5783 5784 5784 5784 5784 5784 5783 5783 5783 5783 5783 5783 5783
5777 5778 5779 5780 5781 5782 5783 5783 5784 5784 5784 5784 5784 5784 5784 5783 5783 5783 5782 5782 5782 5782 5781 5782 5781 5781 5781 5781 5781 5781 5781 5781 5781 5781 5780 5780 5780 5780 5780 5780 5780 5780
5774 5776 5777 5778 5779 5780 5780 5781 5781 5781 5781 5781 5782 5781 5781 5781 5780 5780 5780 5780 5780 5779 5779 5779 5779 5778 5778 5778 5778 5778 5778 5778 5778 5778 5778 5778 5778 5778 5777 5777 5777 5777
5772 5773 5774 5775 5777 5777 5778 5778 5779 5779 5779 5779 5779 5779 5779 5778 5778 5778 5778 5778 5777 5777 5776 5776 5775 5775 5775 5775 5775 5775 5775 5775 5775 5775 5775 5775 5775 5775 5775 5775 5774 5773
5769 5770 5772 5773 5774 5775 5775 5776 5776 5776 5776 5777 5777 5776 5776 5776 5776 5776 5775 5775 5774 5774 5773 5772 5772 5772 5772 5772 5772 5772 5772 5772 5773 5773 5773 5773 5772 5772 5772 5772 5771 5770
5766 5768 5769 5770 5771 5772 5772 5773 5773 5773 5774 5774 5774 5774 5773 5773 5773 5773 5773 5772 5772 5771 5770 5770 5769 5769 5769 5770 5770 5770 5770 5770 5770 5770 5770 5770 5770 5770 5769 5768 5768 5767
5764 5765 5766 5767 5768 5769 5770 5770 5770 5771 5771 5771 5771 5771 5771 5771 5771 5770 5770 5770 5769 5769 5768 5767 5767 5767 5767 5768 5768 5768 5768 5768 5768 5768 5768 5767 5767 5767 5766 5765 5765 5764
5761 5762 5763 5764 5765 5766 5767 5767 5768 5768 5768 5769 5768 5768 5768 5768 5768 5768 5768 5767 5767 5766 5766 5765 5765 5765 5765 5766 5766 5766 5766 5766 5766 5765 5765 5765 5764 5764 5763 5762 5761 5760
5758 5759 5760 5762 5763 5763 5764 5764 5765 5765 5766 5766 5766 5766 5766 5766 5766 5765 5765 5765 5765 5764 5764 5764 5763 5763 5764 5764 5764 5764 5763 5763 5763 5763 5762 5762 5761 5761 5760 5759 5758 5757
5754 5756 5758 5759 5760 5761 5761 5761 5762 5762 5763 5763 5763 5763 5763 5763 5763 5763 5763 5763 5762 5762 5762 5762 5762 5761 5762 5762 5761 5761 5761 5760 5760 5759 5759 5758 5758 5757 5757 5756 5755 5754
5751 5753 5755 5756 5757 5757 5758 5758 5759 5760 5760 5760 5760 5760 5760 5760 5760 5760 5760 5760 5760 5760 5760 5759 5759 5759 5759 5759 5759 5758 5758 5757 5757 5756 5756 5755 5755 5754 5754 5753 5752 5750
5748 5750 5752 5753 5754 5754 5755 5756 5756 5757 5757 5757 5757 5757 5757 5757 5757 5757 5758 5758 5758 5758 5757 5757 5757 5757 5756 5756 5755 5755 5755 5755 5754 5754 5753 5753 5752 5751 5750 5749 5748 5746
5745 5747 5749 5750 5750 5751 5752 5753 5754 5754 5754 5754 5754 5754 5754 5754 5754 5754 5755 5755 5755 5755 5755 5754 5754 5754 5753 5753 5753 5753 5753 5752 5752 5751 5751 5750 5749 5748 5747 5746 5744 5743
5742 5744 5746 5747 5747 5748 5749 5750 5750 5750 5750 5751 5751 5751 5751 5752 5752 5752 5752 5752 5752 5752 5752 5752 5751 5751 5751 5751 5751 5751 5750 5749 5749 5748 5748 5747 5746 5745 5744 5742 5741 5739
5738 5740 5742 5743 5744 5745 5746 5747 5747 5747 5747 5748 5748 5748 5749 5749 5749 5749 5749 5750 5750 5750 5749 5749 5749 5748 5749 5749 5748 5748 5747 5746 5746 5745 5745 5744 5742 5741 5740 5739 5737 5736
5735 5737 5738 5739 5740 5742 5743 5743 5744 5744 5745 5745 5745 5746 5746 5746 5747 5747 5747 5747 5747 5747 5747 5747 5746 5746 5746 5746 5745 5744 5744 5743 5743 5742 5742 5740 5739 5738 5737 5736 5734 5732
5732 5734 5735 5736 5737 5738 5740 5740 5741 5741 5742 5742 5742 5743 5743 5744 5744 5744 5744 5744 5744 5744 5744 5744 5744 5744 5743 5742 5741 5741 5741 5740 5740 5739 5738 5737 5736 5735 5733 5732 5731 5728
5729 5730 5731 5732 5734 5735 5736 5737 5738 5738 5739 5739 5739 5740 5740 5740 5741 5741 5741 5741 5741 5741 5741 5741 5740 5740 5740 5738 5738 5737 5737 5737 5736 5736 5735 5734 5732 5731 5730 5728 5727 5724
5725 5726 5728 5729 5730 5732 5733 5734 5734 5735 5735 5736 5736 5737 5737 5737 5738 5738 5738 5738 5738 5738 5737 5737 5737 5736 5736 5735 5734 5734 5734 5733 5733 5732 5731 5730 5729 5728 5726 5725 5722 5720
5721 5723 5724 5725 5727 5728 5729 5730 5731 5732 5732 5732 5733 5733 5734 5734 5734 5735 5734 5734 5734 5734 5733 5733 5733 5732 5732 5731 5730 5730 5730 5730 5729 5729 5728 5726 5725 5724 5722 5721 5718 5716
5718 5719 5720 5722 5723 5724 5725 5726 5727 5728 5728 5729 5729 5730 5730 5730 5730 5730 5730 5730 5730 5730 5730 5729 5729 5729 5728 5727 5727 5726 5726 5726 5725 5725 5724 5723 5721 5720 5718 5716 5714 5711